Location: Newark
(49.2191°N, 12.6671°E)
Time: 18:43:42
(UTC+00:00)

Transit 4A - Pass Details

Date: 27 January 2020
Orbit: 872 x 973 km, 66.8° (Epoch: 26 February)

Event Time Altitude Azimuth Distance (km) Brightness Sun altitude
Rises 15:22:21 0° 313° (NW) 3,470 11.1 4.0°
Reaches altitude 10° 15:25:34 10° 296° (WNW) 2,529 10.7 3.5°
Maximum altitude 15:29:24 18° 255° (WSW) 1,999 11.2 3.0°
Drops below altitude 10° 15:33:15 10° 213° (SSW) 2,536 11.6 2.5°
Sets 15:36:29 0° 195° (SSW) 3,483 11.7 2.0°
